TimeEDT,TemperatureF,Dew PointF,Humidity,Sea Level PressureIn,VisibilityMPH,Wind Direction,Wind SpeedMPH,Gust SpeedMPH,PrecipitationIn,Events,Conditions,WindDirDegrees,DateUTC
12:15 AM,73.4,71.8,95,29.96,10.0,SW,5.8,-,N/A,,Clear,230,2013-08-04 04:15:00
12:35 AM,72.9,71.2,95,29.94,10.0,Calm,Calm,-,N/A,,Clear,0,2013-08-04 04:35:00
12:55 AM,72.7,71.2,95,29.93,10.0,West,3.5,-,N/A,,Clear,270,2013-08-04 04:55:00
1:15 AM,72.5,71.1,95,29.92,10.0,WSW,4.6,-,N/A,,Clear,250,2013-08-04 05:15:00
1:35 AM,72.5,71.1,95,29.91,10.0,Calm,Calm,-,N/A,,Clear,0,2013-08-04 05:35:00
1:55 AM,72.1,70.9,96,29.91,10.0,WSW,3.5,-,N/A,,Clear,250,2013-08-04 05:55:00
2:15 AM,72.5,70.9,95,29.91,10.0,Calm,Calm,-,N/A,,Clear,0,2013-08-04 06:15:00
2:35 AM,72.5,71.1,95,29.91,10.0,Calm,Calm,-,N/A,,Clear,0,2013-08-04 06:35:00
2:55 AM,72.3,70.9,95,29.90,10.0,Calm,Calm,-,N/A,,Clear,0,2013-08-04 06:55:00
3:15 AM,71.6,70.7,97,29.90,7.0,Calm,Calm,-,N/A,,Clear,0,2013-08-04 07:15:00
3:35 AM,71.6,70.7,97,29.89,5.0,Calm,Calm,-,N/A,,Clear,0,2013-08-04 07:35:00
3:55 AM,71.6,70.7,97,29.89,7.0,Calm,Calm,-,N/A,,Clear,0,2013-08-04 07:55:00
4:15 AM,70.7,69.8,97,29.89,4.0,Calm,Calm,-,N/A,,Clear,0,2013-08-04 08:15:00
4:35 AM,70.0,69.1,97,29.89,4.0,Calm,Calm,-,N/A,,Clear,0,2013-08-04 08:35:00
4:55 AM,69.8,69.1,98,29.89,4.0,Calm,Calm,-,N/A,,Clear,0,2013-08-04 08:55:00
5:15 AM,69.4,68.9,98,29.89,2.5,Calm,Calm,-,N/A,,Mist,0,2013-08-04 09:15:00
5:35 AM,69.8,69.3,98,29.89,4.0,Calm,Calm,-,N/A,,Mostly Cloudy,0,2013-08-04 09:35:00
5:55 AM,69.8,69.3,98,29.90,4.0,Calm,Calm,-,N/A,,Overcast,0,2013-08-04 09:55:00
6:15 AM,69.8,69.3,98,29.90,5.0,Calm,Calm,-,N/A,,Overcast,0,2013-08-04 10:15:00
6:35 AM,69.4,68.9,98,29.91,0.8,Calm,Calm,-,N/A,,Overcast,0,2013-08-04 10:35:00
6:55 AM,70.7,70.0,98,29.92,4.0,Calm,Calm,-,N/A,,Overcast,0,2013-08-04 10:55:00
6:56 AM,69.8,69.8,100,29.92,2.0,Calm,Calm,-,N/A,,Overcast,0,2013-08-04 10:56:00
7:25 AM,71.6,71.6,100,29.93,0.2,Calm,Calm,-,N/A,Fog,Fog,0,2013-08-04 11:25:00
7:56 AM,73.4,71.6,94,29.94,0.8,Calm,Calm,-,N/A,,Overcast,0,2013-08-04 11:56:00
8:30 AM,73.4,73.4,100,29.93,4.0,Calm,Calm,-,N/A,,Scattered Clouds,0,2013-08-04 12:30:00
8:56 AM,75.2,75.2,100,29.94,7.0,Calm,Calm,-,N/A,,Clear,0,2013-08-04 12:56:00
9:56 AM,80.6,73.4,79,29.94,10.0,North,9.2,-,N/A,,Clear,350,2013-08-04 13:56:00
10:56 AM,78.8,71.6,78,29.96,10.0,North,12.7,17.3,N/A,,Mostly Cloudy,360,2013-08-04 14:56:00
11:56 AM,80.6,68.0,65,29.97,10.0,North,11.5,18.4,N/A,,Scattered Clouds,350,2013-08-04 15:56:00
12:56 PM,80.6,69.8,70,29.91,10.0,North,11.5,16.1,N/A,,Scattered Clouds,10,2013-08-04 16:56:00
1:56 PM,80.6,66.2,61,29.95,10.0,North,13.8,-,N/A,,Scattered Clouds,360,2013-08-04 17:56:00
2:56 PM,82.4,62.6,51,29.96,10.0,North,11.5,-,N/A,,Clear,10,2013-08-04 18:56:00
3:56 PM,82.4,62.6,51,29.96,10.0,North,10.4,-,N/A,,Scattered Clouds,360,2013-08-04 19:56:00
4:56 PM,82.4,62.6,51,29.97,10.0,North,8.1,-,N/A,,Scattered Clouds,10,2013-08-04 20:56:00
5:56 PM,82.4,60.8,48,29.97,10.0,North,9.2,-,N/A,,Partly Cloudy,350,2013-08-04 21:56:00
6:56 PM,80.6,60.8,51,29.98,10.0,NNE,4.6,-,N/A,,Clear,20,2013-08-04 22:56:00
8:56 PM,69.8,64.4,83,30.01,10.0,Calm,Calm,-,N/A,,Clear,0,2013-08-05 00:56:00
9:15 PM,69.1,65.7,89,30.01,10.0,Calm,Calm,-,N/A,,Clear,0,2013-08-05 01:15:00
9:35 PM,67.5,65.1,92,30.02,10.0,Calm,Calm,-,N/A,,Clear,0,2013-08-05 01:35:00
9:55 PM,66.9,63.9,90,30.03,10.0,Calm,Calm,-,N/A,,Clear,0,2013-08-05 01:55:00
10:15 PM,66.6,63.7,90,30.03,10.0,Calm,Calm,-,N/A,,Clear,0,2013-08-05 02:15:00
10:35 PM,65.3,63.1,93,30.03,10.0,Calm,Calm,-,N/A,,Clear,0,2013-08-05 02:35:00
10:55 PM,65.3,63.3,93,30.04,10.0,Calm,Calm,-,N/A,,Clear,0,2013-08-05 02:55:00
11:15 PM,64.8,62.8,93,30.04,10.0,Calm,Calm,-,N/A,,Clear,0,2013-08-05 03:15:00
11:35 PM,64.4,62.6,94,30.04,10.0,Calm,Calm,-,N/A,,Clear,0,2013-08-05 03:35:00
11:55 PM,64.8,63.1,94,30.04,10.0,Calm,Calm,-,N/A,,Clear,0,2013-08-05 03:55:00